| time (UTC) | temp F | wind direction | speed MPH | gust MPH | rain 1hr in | rain 24hr in | rain mn in | humidity % | barometer mb |
| 20260901174514 | 94 | 14 | 0.0 | 3.0 | 0.00 | 0.00 | 0.00 | 57 | 1013.4 |
| 20260901173012 | 97 | 14 | 0.0 | 3.0 | 0.00 | 0.00 | 0.00 | 55 | 1013.7 |
| 20260901171508 | 92 | 14 | 0.0 | 3.0 | 0.00 | 0.00 | 0.00 | 60 | 1013.9 |
| 20260901170008 | 94 | 14 | 1.0 | 3.0 | 0.00 | 0.00 | 0.00 | 58 | 1014.1 |
| 20260901164505 | 93 | 14 | 1.0 | 2.0 | 0.00 | 0.00 | 0.00 | 60 | 1014.3 |
| 20260901163004 | 93 | 14 | 0.0 | 4.0 | 0.00 | 0.00 | 0.00 | 58 | 1014.3 |
| 20260901161536 | 92 | 14 | 1.0 | 3.0 | 0.00 | 0.00 | 0.00 | 60 | 1014.5 |
| 20260901160032 | 91 | 14 | 1.0 | 3.0 | 0.00 | 0.00 | 0.00 | 63 | 1014.6 |
| 20260901154524 | 90 | 14 | 1.0 | 2.0 | 0.00 | 0.00 | 0.00 | 65 | 1014.6 |
| 20260901153026 | 90 | 14 | 1.0 | 2.0 | 0.00 | 0.00 | 0.00 | 65 | 1014.6 |
| 20260901151534 | 89 | 14 | 0.0 | 2.0 | 0.00 | 0.00 | 0.00 | 69 | 1014.5 |
| 20260901150033 | 88 | 14 | 0.0 | 4.0 | 0.00 | 0.00 | 0.00 | 70 | 1014.7 |
| 20260901144512 | 87 | 14 | 0.0 | 2.0 | 0.00 | 0.00 | 0.00 | 73 | 1014.8 |
| 20260901143010 | 86 | 14 | 0.0 | 2.0 | 0.00 | 0.00 | 0.00 | 75 | 1014.9 |
| 20260901141506 | 84 | 14 | 0.0 | 2.0 | 0.00 | 0.00 | 0.00 | 77 | 1015.0 |
| 20260901140005 | 83 | 14 | 0.0 | 0.0 | 0.00 | 0.00 | 0.00 | 80 | 1015.0 |
| 20260901134502 | 81 | 14 | 0.0 | 0.0 | 0.00 | 0.00 | 0.00 | 81 | 1015.0 |
| 20260901133002 | 80 | 14 | 0.0 | 0.0 | 0.00 | 0.00 | 0.00 | 83 | 1015.1 |
| 20260901131601 | 78 | 14 | 0.0 | 0.0 | 0.00 | 0.00 | 0.00 | 85 | 1015.0 |
| 20260901130058 | 77 | 14 | 0.0 | 0.0 | 0.00 | 0.00 | 0.00 | 88 | 1014.8 |
| 20260901124557 | 76 | 14 | 0.0 | 0.0 | 0.00 | 0.00 | 0.00 | 90 | 1014.7 |
| 20260901123053 | 75 | 14 | 0.0 | 0.0 | 0.00 | 0.00 | 0.00 | 89 | 1014.7 |
| 20260901121554 | 75 | 14 | 0.0 | 0.0 | 0.00 | 0.00 | 0.00 | 89 | 1014.4 |
| 20260901120048 | 76 | 14 | 0.0 | 0.0 | 0.00 | 0.00 | 0.00 | 89 | 1014.2 |
| 20260901114544 | 76 | 14 | 0.0 | 0.0 | 0.00 | 0.00 | 0.00 | 87 | 1013.9 |
| 20260901113043 | 76 | 14 | 0.0 | 0.0 | 0.00 | 0.00 | 0.00 | 87 | 1013.7 |
| 20260901111540 | 76 | 14 | 0.0 | 0.0 | 0.00 | 0.00 | 0.00 | 86 | 1013.9 |
| 20260901110039 | 76 | 14 | 0.0 | 0.0 | 0.00 | 0.00 | 0.00 | 85 | 1013.8 |
| 20260901104536 | 77 | 14 | 0.0 | 0.0 | 0.00 | 0.00 | 0.00 | 84 | 1013.6 |
| 20260901103035 | 77 | 14 | 0.0 | 0.0 | 0.00 | 0.00 | 0.00 | 84 | 1013.5 |
| 20260901101553 | 77 | 14 | 0.0 | 0.0 | 0.00 | 0.00 | 0.00 | 83 | 1013.6 |
| 20260901100039 | 77 | 14 | 0.0 | 0.0 | 0.00 | 0.00 | 0.00 | 83 | 1013.4 |
| 20260901094538 | 78 | 14 | 0.0 | 0.0 | 0.00 | 0.00 | 0.00 | 82 | 1013.4 |
| 20260901093026 | 78 | 14 | 0.0 | 0.0 | 0.00 | 0.00 | 0.00 | 82 | 1013.5 |
| 20260901091544 | 78 | 14 | 0.0 | 0.0 | 0.00 | 0.00 | 0.00 | 81 | 1013.4 |
| 20260901090024 | 78 | 14 | 0.0 | 0.0 | 0.00 | 0.00 | 0.00 | 80 | 1013.5 |
| 20260901084534 | 78 | 14 | 0.0 | 0.0 | 0.00 | 0.00 | 0.00 | 79 | 1013.5 |
| 20260901083018 | 79 | 14 | 0.0 | 0.0 | 0.00 | 0.00 | 0.00 | 78 | 1013.6 |
| 20260901081518 | 79 | 14 | 0.0 | 0.0 | 0.00 | 0.00 | 0.00 | 77 | 1013.7 |
| 20260901080039 | 79 | 14 | 0.0 | 0.0 | 0.00 | 0.00 | 0.00 | 77 | 1013.6 |
| 20260901074545 | 80 | 14 | 0.0 | 0.0 | 0.00 | 0.00 | 0.00 | 76 | 1013.6 |
| 20260901073043 | 80 | 14 | 0.0 | 0.0 | 0.00 | 0.00 | 0.00 | 75 | 1013.5 |
| 20260901071541 | 81 | 14 | 0.0 | 0.0 | 0.00 | 0.00 | 0.00 | 74 | 1013.6 |
| 20260901070037 | 81 | 14 | 0.0 | 0.0 | 0.00 | 0.00 | 0.00 | 73 | 1013.5 |
| 20260901064534 | 82 | 14 | 0.0 | 0.0 | 0.00 | 0.00 | 0.00 | 73 | 1013.4 |
| 20260901063050 | 82 | 14 | 0.0 | 2.0 | 0.00 | 0.00 | 0.00 | 72 | 1013.3 |
| 20260901061528 | 82 | 14 | 0.0 | 0.0 | 0.00 | 0.00 | 0.00 | 71 | 1013.1 |
| 20260901060025 | 83 | 14 | 0.0 | 1.0 | 0.00 | 0.00 | 0.00 | 71 | 1013.0 |
| 20260901054524 | 83 | 14 | 0.0 | 3.0 | 0.00 | 0.00 | 0.00 | 71 | 1012.9 |
| 20260901053030 | 83 | 14 | 0.0 | 1.0 | 0.00 | 0.00 | 0.00 | 70 | 1012.6 |
| 20260901051519 | 84 | 14 | 0.0 | 1.0 | 0.00 | 0.00 | 0.00 | 69 | 1012.4 |
| 20260901050014 | 84 | 14 | 0.0 | 1.0 | 0.00 | 0.00 | 0.00 | 69 | 1012.5 |
| 20260901044511 | 84 | 14 | 0.0 | 1.0 | 0.00 | 0.00 | 0.00 | 68 | 1012.4 |
| 20260901043022 | 84 | 14 | 0.0 | 1.0 | 0.00 | 0.00 | 0.00 | 67 | 1012.4 |
| 20260901041506 | 84 | 14 | 0.0 | 1.0 | 0.00 | 0.00 | 0.00 | 67 | 1012.3 |
| 20260901040046 | 85 | 14 | 0.0 | 0.0 | 0.00 | 0.00 | 0.00 | 66 | 1012.2 |
| 20260901034535 | 86 | 14 | 0.0 | 0.0 | 0.00 | 0.00 | 0.00 | 64 | 1012.3 |
| 20260901033035 | 86 | 14 | 0.0 | 0.0 | 0.00 | 0.00 | 0.00 | 63 | 1012.2 |
| 20260901031532 | 87 | 14 | 0.0 | 1.0 | 0.00 | 0.00 | 0.00 | 62 | 1012.2 |
| 20260901030034 | 87 | 14 | 0.0 | 1.0 | 0.00 | 0.00 | 0.00 | 62 | 1012.1 |
| 20260901024534 | 87 | 14 | 0.0 | 1.0 | 0.00 | 0.00 | 0.00 | 61 | 1011.9 |
| 20260901023029 | 88 | 14 | 0.0 | 1.0 | 0.00 | 0.00 | 0.00 | 60 | 1011.8 |
| 20260901021530 | 88 | 14 | 0.0 | 1.0 | 0.00 | 0.00 | 0.00 | 60 | 1011.7 |
| 20260901020034 | 88 | 14 | 0.0 | 2.0 | 0.00 | 0.00 | 0.00 | 59 | 1011.6 |
| 20260901014526 | 88 | 14 | 0.0 | 0.0 | 0.00 | 0.00 | 0.00 | 59 | 1011.3 |
| 20260901013025 | 89 | 14 | 0.0 | 0.0 | 0.00 | 0.00 | 0.00 | 58 | 1011.3 |
| 20260901011528 | 90 | 14 | 0.0 | 0.0 | 0.00 | 0.00 | 0.00 | 56 | 1011.1 |
| 20260901010024 | 91 | 14 | 0.0 | 1.0 | 0.00 | 0.00 | 0.00 | 53 | 1011.0 |
| 20260901004522 | 93 | 14 | 0.0 | 1.0 | 0.00 | 0.00 | 0.00 | 50 | 1011.1 |
| 20260901003023 | 94 | 14 | 0.0 | 2.0 | 0.00 | 0.00 | 0.00 | 48 | 1011.0 |
| 20260901001525 | 95 | 14 | 0.0 | 2.0 | 0.00 | 0.00 | 0.00 | 48 | 1010.9 |
| 20260901000021 | 95 | 14 | 0.0 | 2.0 | 0.00 | 0.00 | 0.00 | 47 | 1010.7 |
| 20260831234520 | 95 | 14 | 0.0 | 2.0 | 0.00 | 0.00 | 0.00 | 47 | 1010.7 |
| 20260831233015 | 94 | 14 | 0.0 | 0.0 | 0.00 | 0.00 | 0.00 | 48 | 1010.7 |
| 20260831231524 | 95 | 14 | 0.0 | 1.0 | 0.00 | 0.00 | 0.00 | 46 | 1010.7 |
| 20260831230014 | 96 | 14 | 0.0 | 1.0 | 0.00 | 0.00 | 0.00 | 45 | 1010.8 |
| 20260831224540 | 97 | 14 | 0.0 | 3.0 | 0.00 | 0.00 | 0.00 | 44 | 1010.9 |
| 20260831223011 | 98 | 14 | 0.0 | 2.0 | 0.00 | 0.00 | 0.00 | 42 | 1010.9 |
| 20260831221509 | 98 | 14 | 0.0 | 2.0 | 0.00 | 0.00 | 0.00 | 42 | 1011.1 |
| 20260831220009 | 97 | 14 | 0.0 | 2.0 | 0.00 | 0.00 | 0.00 | 44 | 1011.0 |
| 20260831214507 | 99 | 14 | 1.0 | 4.0 | 0.00 | 0.00 | 0.00 | 42 | 1011.1 |
| 20260831213004 | 98 | 14 | 0.0 | 2.0 | 0.00 | 0.00 | 0.00 | 42 | 1011.2 |
| 20260831211503 | 97 | 14 | 0.0 | 2.0 | 0.00 | 0.00 | 0.00 | 44 | 1011.4 |
| 20260831210003 | 96 | 14 | 0.0 | 2.0 | 0.00 | 0.00 | 0.00 | 44 | 1011.6 |
| 20260831204501 | 97 | 14 | 0.0 | 2.0 | 0.00 | 0.00 | 0.00 | 45 | 1011.8 |
| 20260831203037 | 98 | 14 | 0.0 | 2.0 | 0.00 | 0.00 | 0.00 | 44 | 1012.0 |
| 20260831201532 | 98 | 14 | 1.0 | 4.0 | 0.00 | 0.00 | 0.00 | 43 | 1012.4 |
| 20260831200027 | 99 | 14 | 1.0 | 2.0 | 0.00 | 0.00 | 0.00 | 42 | 1012.5 |
| 20260831194526 | 100 | 14 | 0.0 | 3.0 | 0.00 | 0.00 | 0.00 | 43 | 1012.7 |
| 20260831193029 | 101 | 14 | 1.0 | 4.0 | 0.00 | 0.00 | 0.00 | 41 | 1012.7 |
| 20260831191536 | 101 | 14 | 0.0 | 3.0 | 0.00 | 0.00 | 0.00 | 41 | 1012.7 |
| 20260831190019 | 99 | 14 | 1.0 | 4.0 | 0.00 | 0.00 | 0.00 | 43 | 1013.0 |
| 20260831184517 | 95 | 14 | 0.0 | 1.0 | 0.00 | 0.00 | 0.00 | 49 | 1013.3 |
| 20260831183026 | 97 | 14 | 0.0 | 3.0 | 0.00 | 0.00 | 0.00 | 48 | 1013.5 |
| 20260831181514 | 97 | 14 | 1.0 | 5.0 | 0.00 | 0.00 | 0.00 | 47 | 1013.6 |
| 20260831180013 | 98 | 14 | 1.0 | 4.0 | 0.00 | 0.00 | 0.00 | 45 | 1013.7 |